Location: �quirre
(50.4736°N, 2.2351°E)
Time: 04:01:45
(UTC+00:00)

MSX - Pass Details

Date: 07 August 2020
Orbit: 896 x 905 km, 98.8° (Epoch: 19 September)

Event Time Altitude Azimuth Distance (km) Brightness Sun altitude
Rises 03:03:53 0° 18° (NNE) 3,532 8.1 -11.6°
Reaches altitude 10° 03:06:21 10° 22° (NNE) 2,589 7.4 -11.4°
Maximum altitude 03:12:01 55° 101° (E) 1,078 4.5 -10.7°
Drops below altitude 10° 03:17:39 10° 178° (S) 2,577 5.9 -10.0°
Sets 03:20:06 0° 183° (S) 3,515 6.5 -9.8°
Enters shadow 03:20:11 - 183° (S) 3,543 6.5 -9.7°
